Temperature
18 18 18 17 17 17 17 17 18 18 18 19 19 19 19 18 18 18 17 18 17 17 17 17 17 17 17 18 18 18 18 18 18 17 17 17 17 17 18 18 18 18 18
18 18 18 18 18 17 17 17 18 18 18 18 18 18 19 19 18 17 17 17 17 17 17 17 17 17 17 17 18 18 18 17 17 17 17 17 17 17 17 17 17 17 17
18 18 18 18 18 17 17 17 18 18 18 18 18 18 19 18 18 18 17 17 17 17 17 17 17 17 17 17 17 17 17 17 17 17 17 17 17 17 17 17 17 17 17
18 18 18 17 17 17 17 17 17 17 18 18 18 18 18 18 18 18 18 17 17 17 17 17 17 17 17 17 17 17 17 17 17 17 17 17 17 17 17 17 17 17 17
18 18 18 17 17 17 17 17 17 17 18 18 18 18 18 18 18 18 18 18 17 17 17 17 17 17 17 17 17 17 17 17 17 17 17 17 17 17 17 17 17 16 16
18 18 18 18 17 17 17 17 17 17 17 17 18 18 18 18 18 18 18 18 18 17 17 17 17 17 17 17 17 17 17 17 17 17 17 17 16 16 16 16 16 16 16
18 18 18 18 18 17 17 17 17 17 17 17 17 18 18 18 18 18 18 18 18 17 17 17 17 17 17 17 17 17 17 17 17 17 16 16 16 16 16 16 16 16 16
18 18 18 18 17 17 17 17 17 17 17 17 17 17 17 18 17 18 18 17 18 18 17 17 17 17 17 17 17 17 17 17 17 17 16 16 16 16 16 16 16 16 16
17 17 17 17 17 17 17 17 17 17 17 17 17 17 17 18 18 18 18 17 17 18 18 18 18 17 17 16 16 17 17 17 17 17 16 16 16 16 16 16 16 16 16
16 17 17 17 17 17 17 17 17 17 17 16 16 16 17 17 17 17 17 18 18 17 17 17 17 18 17 17 16 16 17 17 16 16 16 16 16 16 16 16 16 16 16
16 16 16 16 16 16 17 16 16 16 16 16 16 16 16 16 16 17 17 17 17 17 17 17 17 17 17 17 16 16 16 16 16 16 16 16 16 16 16 16 16 16 15
16 16 16 16 16 16 16 16 16 16 16 16 16 16 16 16 16 16 16 16 16 17 16 16 17 17 16 16 16 16 16 16 16 16 16 16 16 16 16 16 16 15 15
15 15 16 16 16 16 16 16 16 16 16 16 16 16 16 16 15 15 15 15 15 16 16 16 16 16 16 16 16 16 16 16 16 16 16 16 16 16 15 15 15 15 15
14 15 15 15 15 15 15 15 16 16 16 16 15 15 15 15 15 15 15 15 15 15 15 15 16 16 16 16 16 16 16 16 16 16 16 15 15 15 15 15 15 15 15
14 14 14 15 15 15 15 15 15 15 15 15 15 15 15 15 15 15 15 14 14 14 14 15 15 15 15 15 16 16 16 16 16 16 15 15 15 15 15 15 15 15 14
14 14 14 14 14 14 14 14 14 14 14 14 14 14 14 14 14 14 14 14 14 14 14 14 14 15 15 15 15 15 15 16 16 16 15 15 15 15 15 15 15 14 14
13 13 13 13 13 14 14 14 14 14 14 14 14 14 14 14 14 14 14 14 13 13 13 14 14 14 14 14 15 15 15 15 15 15 15 15 15 14 14 14 14 14 14
12 13 13 13 13 13 13 13 13 13 13 13 13 13 13 13 13 13 13 13 13 13 13 13 13 13 14 14 14 15 15 15 15 15 15 15 14 14 14 14 14 14 14
12 12 12 12 12 13 13 13 13 13 13 13 13 13 13 13 13 13 13 13 13 13 13 13 13 13 13 14 14 14 14 14 14 15 15 14 14 14 14 14 14 14 14
12 12 12 12 12 12 12 12 12 13 13 13 13 13 13 13 13 13 13 13 13 13 13 13 13 13 13 14 14 14 14 14 14 14 14 14 14 14 14 14 13 13 14
11 11 11 11 12 12 12 12 12 12 12 13 13 13 13 13 13 13 13 13 13 13 13 13 13 13 13 13 13 13 13 14 14 13 13 13 13 13 13 13 13 13 13
11 11 11 11 11 12 12 12 12 12 12 12 13 13 13 13 13 13 13 13 13 13 13 13 13 13 13 13 13 13 13 13 13 13 13 13 12 12 12 12 12 12 12
11 11 11 11 11 11 11 12 12 12 12 12 12 12 12 13 13 13 13 13 13 13 13 13 13 13 13 13 13 13 13 13 13 12 12 12 11 11 11 11 11 11 11
10 10 11 11 11 11 11 11 12 11 12 12 12 12 12 12 12 13 13 13 13 13 13 13 13 13 13 13 13 13 13 13 12 12 12 11 11 11 10 11 10 11 11
10 10 10 10 10 10 10 11 11 11 11 11 12 12 12 12 12 13 13 13 13 13 13 13 13 13 13 13 13 12 12 12 12 12 11 11 10 10 10 10 10 10 10
9 9 9 9 9 9 10 10 10 10 10 11 11 11 12 12 12 12 12 13 13 13 13 13 13 13 13 13 13 12 12 12 12 11 11 11 11 10 10 9 9 9 9
Wind_Speed
8 8 8 7 8 8 8 7 8 8 7 7 7 7 7 6 4 2 5 6 3 1 2 3 4 5 4 3 3 3 3 3 3 4 4 5 6 7 7 7 6 5 4
9 8 8 8 8 8 8 8 9 7 7 7 7 7 6 6 5 4 3 6 6 3 1 1 3 4 5 5 4 4 3 4 4 4 4 5 6 6 7 6 6 5 5
12 10 9 8 8 10 10 8 9 7 7 7 8 8 7 6 6 6 4 3 5 7 4 2 2 2 4 5 5 5 4 4 4 4 5 5 5 6 6 6 6 5 5
13 10 9 9 10 9 8 7 7 8 8 8 8 7 7 6 8 6 5 5 4 3 7 5 2 2 2 3 4 5 5 4 5 5 5 5 5 6 6 6 6 6 6
12 10 9 9 10 8 7 7 8 8 8 7 7 6 7 7 7 7 7 6 5 5 4 8 6 4 3 3 3 4 4 4 5 5 4 5 5 5 5 5 5 5 6
12 11 8 10 9 7 7 7 7 7 7 6 7 7 7 7 7 7 7 6 6 6 5 5 6 7 5 3 3 3 3 4 4 4 4 4 4 4 4 4 4 4 4
13 11 9 9 9 8 9 9 7 8 8 7 7 7 8 9 9 7 8 7 7 7 7 7 6 5 7 8 5 4 3 3 4 4 4 4 4 4 3 2 2 2 2
14 13 13 11 10 9 9 9 8 6 5 6 6 6 7 8 8 9 8 8 9 8 9 9 8 7 6 6 8 6 4 3 4 4 4 4 4 4 4 3 2 2 1
13 14 14 13 12 11 9 10 10 10 7 6 6 5 5 7 6 8 11 10 10 8 8 9 9 10 9 7 7 10 8 5 5 5 5 5 5 4 4 3 3 2 2
9 12 12 12 12 11 11 11 11 10 9 7 6 6 5 3 4 4 7 9 9 9 10 8 9 10 10 9 7 6 9 8 7 6 6 6 5 5 4 4 3 3 4
5 7 9 10 11 10 11 12 12 12 11 10 8 5 6 3 6 4 4 5 6 8 8 9 8 8 9 10 9 10 12 11 9 8 7 6 6 5 5 5 5 5 6
3 4 6 7 9 9 10 11 12 13 12 11 10 8 6 5 5 5 5 5 4 4 5 6 7 7 8 9 10 10 12 13 12 10 9 8 7 6 5 5 6 7 7
1 2 3 4 5 7 8 9 10 10 12 12 11 9 8 7 4 4 4 4 4 3 3 5 5 6 7 9 9 11 13 14 14 13 11 10 8 7 6 6 6 7 8
2 1 0 1 3 4 5 5 6 7 8 10 11 11 8 7 7 6 5 5 4 4 4 5 3 4 5 7 6 9 11 15 15 14 13 12 11 9 7 6 6 6 7
4 4 3 2 1 2 3 4 4 5 6 7 8 9 7 6 7 7 5 5 5 5 6 5 4 3 3 4 4 8 10 13 15 14 14 13 12 10 9 7 6 6 6
7 7 6 5 4 2 2 2 2 2 4 4 5 7 6 5 5 6 6 6 5 4 4 3 3 3 2 3 4 7 7 9 12 13 13 13 12 11 9 8 7 7 7
9 9 7 6 6 5 3 3 2 2 2 3 3 5 5 5 4 5 5 6 5 4 4 3 2 3 4 4 3 5 6 8 10 12 12 11 11 10 9 9 8 8 8
10 9 8 7 7 6 5 4 2 2 3 3 3 4 5 4 4 4 4 5 4 4 4 4 4 4 4 2 2 3 4 5 6 9 9 9 8 7 7 7 7 7 7
10 10 10 9 8 7 6 4 3 2 2 3 4 4 4 5 5 4 4 4 4 4 4 4 4 3 3 3 3 4 4 4 6 9 8 7 6 4 2 0 2 3 3
11 11 11 10 9 9 8 5 3 2 1 2 3 3 3 4 4 4 3 4 4 4 4 4 3 4 3 3 4 5 5 5 5 7 9 10 12 13 11 8 6 5 4
12 11 11 11 11 10 10 9 5 3 2 1 1 2 3 3 3 3 3 4 4 4 4 4 4 4 4 4 5 5 6 7 6 5 7 7 8 9 10 11 12 11 11
11 11 11 11 11 10 13 13 9 4 3 2 1 1 3 4 4 5 4 3 2 3 4 4 4 4 5 4 4 5 7 7 4 4 6 7 7 8 9 11 13 14 14
11 11 11 10 10 12 14 13 11 6 4 3 2 1 2 3 3 5 6 6 4 3 1 2 3 3 4 5 5 6 6 6 6 5 7 6 6 8 10 13 15 15 15
9 9 9 9 9 12 15 13 10 5 5 5 4 3 2 4 4 4 6 7 7 5 3 2 5 5 5 4 4 5 8 10 9 5 5 4 5 7 8 12 16 17 18
8 8 8 9 9 11 15 15 11 5 5 5 5 5 3 4 5 3 5 8 9 8 12 15 14 12 12 9 4 7 8 9 7 4 4 4 5 6 7 7 14 18 19
7 7 8 9 9 10 14 15 13 4 4 4 4 4 7 5 5 1 5 7 8 8 8 9 9 9 10 8 3 4 6 7 7 4 3 4 7 5 4 4 5 7 11
Wind_Direction
235 231 225 218 221 215 204 217 223 212 220 220 210 216 205 193 190 179 126 125 126 142 206 207 202 198 195 193 195 190 182 177 170 165 158 162 166 164 159 157 159 161 161
240 238 236 225 224 220 218 218 218 210 215 216 214 211 223 207 202 188 167 148 153 150 159 219 218 208 199 199 203 205 198 191 186 185 180 177 178 178 175 176 180 184 190
246 241 241 233 223 218 218 219 217 216 214 210 217 223 219 223 214 204 184 183 161 159 166 186 204 207 200 206 209 206 206 201 197 195 194 194 194 194 195 198 205 212 220
251 248 241 240 234 225 221 212 218 213 212 215 219 215 217 209 224 220 209 198 189 168 164 162 174 185 198 204 203 204 204 203 200 198 199 201 203 206 210 218 224 230 238
260 250 244 242 235 226 224 219 211 216 219 221 227 223 226 213 212 215 222 213 188 202 179 151 172 173 175 187 193 199 201 204 201 198 199 201 202 206 214 226 235 242 247
257 252 247 244 236 221 216 218 216 216 227 227 234 229 226 221 222 218 226 223 216 199 201 181 183 168 169 171 179 189 194 199 197 196 196 195 194 198 210 223 235 244 249
242 241 240 239 230 221 213 209 208 215 219 224 233 231 228 226 229 215 220 224 219 209 210 204 205 185 169 174 182 181 184 185 184 183 181 176 175 178 182 187 207 226 238
233 233 233 232 226 220 215 209 198 207 215 219 225 232 233 224 225 229 224 227 232 209 219 211 205 196 197 182 152 172 181 184 183 180 175 173 171 169 169 169 173 187 197
234 230 232 230 225 218 217 208 202 202 203 211 229 225 227 228 219 214 220 223 229 228 221 219 214 200 198 198 176 181 187 195 197 193 187 181 177 176 178 179 180 184 173
241 232 230 229 227 221 217 215 208 207 200 200 213 233 243 262 224 212 210 222 222 224 229 221 225 220 205 203 194 166 184 199 204 203 196 189 187 188 192 194 186 179 166
245 237 229 226 224 219 218 217 210 207 205 203 197 200 219 242 248 241 224 209 212 220 225 227 220 222 216 213 208 195 189 203 207 209 204 197 194 197 199 197 195 182 171
241 229 223 221 218 215 215 215 213 209 209 206 201 197 193 192 209 222 232 232 232 225 226 228 235 222 220 225 215 177 193 207 210 211 209 202 200 202 201 200 200 190 180
277 239 215 214 213 213 213 215 216 212 209 207 205 205 205 203 188 194 214 226 230 235 238 229 227 227 223 226 216 189 207 211 213 212 209 203 198 201 209 213 212 202 198
5 10 339 198 200 202 206 212 216 214 211 212 212 208 206 204 198 198 198 199 211 221 230 232 212 220 223 228 206 196 212 208 212 212 210 205 201 202 209 218 223 220 215
30 40 53 75 105 173 196 200 209 212 213 215 213 210 206 205 203 202 196 199 199 208 217 219 211 207 214 231 192 218 220 198 205 210 209 206 203 205 210 219 229 230 228
37 44 49 59 68 82 129 155 178 188 203 207 207 205 200 200 198 194 194 199 205 207 208 191 201 187 197 216 203 232 221 171 200 206 206 204 203 205 211 220 229 234 237
39 46 47 54 59 63 77 107 125 141 158 169 178 187 185 180 184 186 187 191 198 196 199 188 196 192 205 220 193 213 208 203 192 192 197 199 202 206 213 224 234 240 246
37 38 41 48 51 53 55 63 85 122 148 162 165 166 168 164 167 173 178 184 184 190 193 193 191 192 209 202 205 199 196 195 181 161 177 185 193 203 217 233 244 251 257
37 41 42 43 44 42 42 45 55 67 109 148 160 166 163 161 165 166 170 180 180 185 194 198 179 167 186 179 179 171 164 159 148 140 141 137 128 123 118 185 264 272 280
38 37 40 41 40 37 29 23 35 51 87 125 146 158 159 161 166 163 166 176 180 182 189 192 184 178 173 171 188 168 150 133 125 119 102 102 97 87 79 73 68 64 58
39 37 38 37 36 34 24 11 10 19 35 56 116 163 159 160 173 174 176 182 186 189 187 191 186 182 175 176 180 168 148 130 107 109 107 99 96 85 80 72 69 70 71
37 35 34 35 35 31 20 17 3 19 28 49 70 108 153 173 171 172 165 162 183 194 191 190 192 185 170 163 154 158 151 149 123 108 104 87 83 78 67 67 67 72 72
33 32 30 29 30 26 19 20 11 17 35 38 49 81 110 114 138 147 143 148 125 78 349 204 170 150 145 149 157 158 154 136 116 126 114 94 88 84 77 66 66 70 71
33 31 26 23 25 25 18 15 357 31 45 46 47 60 105 121 112 131 142 132 116 92 73 112 108 99 100 121 133 129 120 112 105 100 115 105 107 96 87 72 67 70 71
28 31 30 24 23 24 18 12 355 38 47 51 53 54 67 116 101 117 141 130 117 97 69 68 70 79 70 59 85 131 136 134 123 107 105 113 124 110 97 95 83 78 75
26 29 33 28 26 24 19 14 1 27 44 54 60 70 62 65 95 90 148 137 125 117 115 108 102 105 98 88 49 128 139 139 133 119 122 129 151 143 111 86 89 93 84
Height
1554 1556 1557 1557 1558 1559 1559 1560 1562 1564 1565 1567 1568 1569 1570 1571 1571 1571 1570 1567 1567 1566 1566 1566 1566 1567 1568 1569 1569 1570 1571 1572 1573 1573 1574 1575 1576 1577 1577 1578 1579 1579 1580
1550 1552 1553 1554 1556 1557 1558 1559 1560 1561 1563 1564 1566 1567 1568 1569 1570 1569 1569 1567 1566 1566 1565 1565 1566 1566 1567 1568 1568 1569 1570 1571 1572 1573 1574 1575 1576 1576 1577 1578 1578 1579 1579
1547 1548 1550 1552 1553 1554 1555 1557 1559 1559 1561 1562 1563 1565 1566 1567 1568 1568 1568 1568 1567 1566 1565 1565 1565 1565 1566 1566 1567 1568 1569 1570 1571 1572 1573 1574 1575 1576 1576 1577 1578 1578 1578
1543 1544 1545 1547 1549 1551 1552 1553 1555 1556 1558 1560 1562 1563 1564 1564 1566 1566 1567 1567 1567 1567 1565 1565 1564 1565 1565 1565 1566 1567 1568 1569 1570 1571 1572 1573 1574 1575 1575 1576 1576 1577 1577
1539 1540 1541 1543 1545 1546 1548 1550 1552 1554 1556 1558 1559 1560 1561 1562 1563 1564 1565 1566 1566 1565 1566 1564 1564 1564 1564 1565 1565 1566 1567 1568 1568 1569 1570 1571 1572 1573 1574 1574 1575 1575 1575
1534 1535 1536 1538 1540 1541 1543 1545 1548 1550 1552 1554 1556 1558 1559 1560 1561 1562 1563 1564 1564 1565 1565 1565 1564 1564 1564 1564 1564 1565 1566 1566 1567 1568 1569 1570 1570 1571 1572 1573 1573 1573 1574
1528 1529 1530 1532 1534 1536 1538 1540 1543 1546 1548 1551 1553 1555 1556 1556 1558 1559 1560 1561 1562 1563 1563 1563 1564 1564 1564 1563 1564 1564 1565 1565 1566 1567 1567 1568 1569 1569 1570 1571 1571 1572 1572
1522 1523 1525 1526 1529 1531 1533 1535 1538 1541 1543 1546 1549 1551 1552 1554 1553 1555 1556 1558 1559 1560 1561 1562 1563 1563 1564 1564 1563 1563 1564 1564 1565 1565 1566 1567 1567 1568 1568 1569 1569 1570 1570
1515 1517 1519 1521 1523 1525 1528 1530 1532 1535 1538 1541 1544 1547 1548 1549 1550 1551 1552 1554 1555 1557 1558 1560 1561 1561 1562 1563 1563 1562 1563 1563 1564 1564 1565 1566 1566 1566 1567 1567 1568 1568 1568
1509 1511 1513 1515 1517 1519 1522 1525 1527 1529 1533 1535 1538 1541 1543 1545 1547 1547 1549 1550 1552 1553 1555 1556 1558 1559 1560 1561 1561 1561 1562 1562 1563 1563 1564 1564 1565 1565 1565 1566 1566 1566 1567
1504 1505 1507 1509 1511 1514 1516 1519 1521 1524 1527 1529 1532 1534 1537 1539 1542 1544 1545 1546 1548 1549 1551 1553 1554 1556 1557 1558 1558 1559 1560 1561 1562 1562 1563 1563 1564 1564 1564 1564 1565 1565 1566
1500 1501 1502 1504 1506 1508 1511 1513 1516 1518 1521 1524 1526 1528 1531 1533 1536 1539 1541 1542 1544 1546 1547 1548 1550 1552 1553 1555 1556 1556 1558 1559 1560 1561 1561 1562 1562 1563 1563 1563 1564 1564 1565
1497 1497 1498 1500 1502 1504 1506 1509 1511 1514 1516 1518 1520 1523 1525 1528 1530 1533 1536 1537 1539 1541 1543 1544 1545 1547 1549 1550 1552 1553 1554 1556 1557 1558 1559 1560 1561 1561 1562 1562 1562 1563 1563
1496 1495 1496 1497 1499 1500 1502 1505 1507 1509 1511 1513 1515 1518 1520 1522 1524 1526 1529 1532 1534 1536 1538 1539 1541 1543 1544 1546 1548 1549 1551 1553 1554 1556 1557 1558 1559 1559 1560 1560 1561 1561 1561
1495 1495 1495 1496 1497 1498 1500 1502 1504 1505 1507 1509 1511 1513 1515 1517 1519 1521 1524 1526 1529 1530 1532 1535 1536 1538 1540 1542 1543 1545 1548 1549 1551 1552 1554 1555 1556 1557 1558 1558 1559 1559 1560
1496 1495 1495 1496 1497 1497 1498 1500 1501 1502 1504 1505 1507 1508 1510 1512 1515 1517 1519 1521 1523 1526 1527 1530 1532 1533 1535 1537 1539 1542 1544 1545 1547 1549 1551 1553 1554 1555 1556 1557 1557 1557 1558
1498 1497 1497 1497 1497 1498 1499 1499 1500 1500 1502 1503 1504 1505 1507 1509 1511 1512 1514 1517 1519 1521 1523 1526 1529 1530 1532 1534 1536 1538 1540 1542 1544 1546 1548 1550 1552 1553 1554 1554 1555 1555 1555
1501 1500 1499 1499 1499 1499 1499 1499 1500 1500 1501 1501 1502 1503 1505 1506 1508 1510 1511 1514 1516 1518 1521 1523 1526 1528 1530 1531 1533 1535 1536 1538 1541 1542 1545 1547 1549 1550 1551 1552 1552 1553 1553
1504 1503 1502 1501 1501 1500 1500 1500 1500 1500 1501 1501 1502 1503 1504 1505 1507 1508 1510 1512 1514 1517 1519 1521 1523 1525 1527 1528 1530 1532 1533 1536 1538 1540 1542 1545 1546 1548 1548 1549 1550 1550 1550
1507 1506 1505 1503 1503 1502 1501 1501 1501 1501 1501 1502 1502 1502 1503 1505 1506 1508 1509 1511 1513 1516 1517 1519 1521 1523 1524 1525 1527 1529 1531 1533 1536 1538 1540 1542 1543 1545 1546 1547 1547 1547 1547
1510 1508 1507 1505 1504 1503 1502 1501 1501 1501 1501 1501 1502 1503 1503 1504 1506 1508 1509 1511 1513 1515 1516 1518 1519 1521 1522 1523 1525 1527 1529 1531 1534 1536 1538 1540 1541 1543 1544 1544 1544 1544 1544
1513 1511 1509 1507 1505 1504 1503 1502 1501 1501 1501 1501 1502 1503 1503 1504 1506 1508 1510 1512 1513 1514 1516 1517 1519 1520 1521 1522 1523 1525 1527 1530 1532 1535 1536 1538 1540 1541 1542 1542 1543 1543 1543
1515 1513 1511 1509 1507 1505 1504 1502 1501 1501 1501 1501 1502 1503 1504 1505 1506 1508 1510 1512 1513 1514 1516 1517 1518 1519 1520 1520 1522 1524 1526 1529 1530 1533 1536 1538 1540 1541 1542 1542 1543 1543 1543
1517 1515 1512 1510 1508 1506 1504 1503 1502 1502 1501 1501 1502 1503 1504 1505 1507 1508 1510 1512 1514 1515 1516 1517 1518 1518 1519 1520 1522 1524 1526 1528 1531 1534 1536 1538 1540 1542 1543 1543 1543 1543 1543
1519 1517 1514 1512 1510 1508 1505 1504 1502 1502 1502 1502 1502 1503 1504 1506 1507 1509 1511 1513 1514 1515 1516 1517 1518 1519 1520 1521 1522 1524 1526 1529 1531 1534 1537 1538 1541 1542 1543 1544 1544 1544 1544
1521 1519 1516 1514 1511 1509 1507 1504 1503 1503 1503 1503 1503 1503 1505 1506 1508 1510 1512 1514 1516 1517 1518 1519 1520 1521 1522 1523 1525 1527 1528 1530 1532 1535 1537 1539 1541 1543 1544 1545 1545 1545 1544